TimeMST,TemperatureF,Dew PointF,Humidity,Sea Level PressureIn,VisibilityMPH,Wind Direction,Wind SpeedMPH,Gust SpeedMPH,PrecipitationIn,Events,Conditions,WindDirDegrees,DateUTC
12:53 AM,12.0,7.0,80,30.49,8.0,Calm,Calm,-,N/A,,Clear,0,2013-02-15 07:53:00
1:53 AM,10.0,5.0,80,30.51,9.0,Variable,5.8,-,N/A,,Clear,0,2013-02-15 08:53:00
2:53 AM,12.0,8.1,84,30.51,8.0,Calm,Calm,-,N/A,,Clear,0,2013-02-15 09:53:00
3:53 AM,12.0,7.0,80,30.49,7.0,Variable,5.8,17.3,N/A,,Clear,0,2013-02-15 10:53:00
4:53 AM,8.1,3.9,83,30.52,6.0,East,3.5,-,N/A,,Clear,80,2013-02-15 11:53:00
5:53 AM,5.0,1.9,87,30.56,5.0,WNW,5.8,-,N/A,,Clear,290,2013-02-15 12:53:00
6:53 AM,7.0,3.0,84,30.58,6.0,WNW,3.5,-,N/A,,Clear,300,2013-02-15 13:53:00
7:53 AM,10.0,7.0,87,30.61,7.0,Calm,Calm,-,N/A,,Clear,0,2013-02-15 14:53:00
8:53 AM,17.1,10.9,77,30.61,8.0,North,5.8,-,N/A,,Clear,350,2013-02-15 15:53:00
9:53 AM,21.0,12.9,71,30.61,10.0,Calm,Calm,-,N/A,,Clear,0,2013-02-15 16:53:00
10:53 AM,26.1,15.1,63,30.60,10.0,Calm,Calm,-,N/A,,Clear,0,2013-02-15 17:53:00
11:53 AM,27.0,15.1,61,30.60,10.0,Calm,Calm,-,N/A,,Clear,0,2013-02-15 18:53:00
12:53 PM,28.9,16.0,58,30.56,10.0,East,3.5,-,N/A,,Clear,80,2013-02-15 19:53:00
1:53 PM,30.0,17.1,59,30.56,10.0,Calm,Calm,-,N/A,,Clear,0,2013-02-15 20:53:00
2:53 PM,32.0,15.1,50,30.54,10.0,Calm,Calm,-,N/A,,Clear,0,2013-02-15 21:53:00
3:53 PM,34.0,12.9,42,30.53,10.0,Calm,Calm,-,N/A,,Clear,0,2013-02-15 22:53:00
5:53 PM,28.0,16.0,61,30.56,10.0,Calm,Calm,-,N/A,,Clear,0,2013-02-16 00:53:00
6:53 PM,21.0,12.9,71,30.59,7.0,Calm,Calm,-,N/A,,Clear,0,2013-02-16 01:53:00
7:53 PM,18.0,12.9,81,30.61,7.0,Calm,Calm,-,N/A,,Clear,0,2013-02-16 02:53:00
8:53 PM,16.0,10.9,81,30.59,7.0,Calm,Calm,-,N/A,,Clear,0,2013-02-16 03:53:00
9:53 PM,14.0,9.0,80,30.60,6.0,Calm,Calm,-,N/A,,Haze,0,2013-02-16 04:53:00
10:53 PM,12.9,8.1,81,30.58,6.0,Calm,Calm,-,N/A,,Haze,0,2013-02-16 05:53:00
11:53 PM,10.9,6.1,81,30.58,10.0,Calm,Calm,-,N/A,,Clear,0,2013-02-16 06:53:00